Weather History for Klawock, AK

Change the Weather History Date:

Friday, June 28, 2013

  Actual Average Record
Temperature  
Mean Temperature 60 °F -  
Max Temperature 68 °F 59 °F 70 °F (2002)
Min Temperature 55 °F 47 °F 43 °F (2010)
Degree Days  
Heating Degree Days 4    
Growing Degree Days 10 (Base 50)    
Moisture  
Dew Point 54 °F    
Average Humidity 83    
Maximum Humidity 93    
Minimum Humidity 67    
Precipitation  
Precipitation 0.13 in - - ()
Sea Level Pressure  
Sea Level Pressure 30.13 in    
Wind  
Wind Speed 2 mph (WNW)    
Max Wind Speed 8 mph    
Max Gust Speed -    
Visibility 10 miles    
Events Rain    
Averages and records for this station are not official NWS values.
T = Trace of Precipitation, MM = Missing Value Source: NWS Daily Summary

Daily Weather History Graph

Daily Weather History Graph

Search for Another Location

Airport:

Trip Planner

Search our weather history database for the weather conditions in past years. The results will help you decide how hot, cold, wet, or windy it might be!

Date:

Astronomy

Jun. 28, 2013 Rise Set
Actual Time 4:11 AM AKDT 9:39 PM AKDT
Civil Twilight 3:11 AM AKDT 10:38 PM AKDT
Nautical Twilight 1:28 AM AKDT 12:23 AM AKDT
Astronomical Twilight Sun does not rise Sun does not rise
Moon 11:52 PM AKDT (6/28) 11:41 AM AKDT (6/28)
Length of Visible Light 19h 27m
Length of Day
17h 27m
Waning Gibbous, 65% of the Moon is Illuminated
Jun 28
Waning Gibbous
Jun 29
Last Quarter
Jul 7
New
Jul 15
First Quarter
Jul 22
Full

Hourly Weather History & Observations

Time (AKDT) Temp. Dew Point Humidity Pressure Visibility Wind Dir Wind Speed Gust Speed Precip Events Conditions
12:53 AM 57.9 °F 52.0 °F 81% 30.16 in 10.0 mi Calm Calm - N/A   Overcast
1:53 AM 57.9 °F 51.1 °F 78% 30.16 in 10.0 mi Calm Calm - N/A   Overcast
2:53 AM 55.9 °F 52.0 °F 87% 30.17 in 10.0 mi Calm Calm - N/A   Overcast
3:53 AM 57.0 °F 53.1 °F 87% 30.17 in 10.0 mi ENE 3.5 mph - N/A   Overcast
4:53 AM 55.9 °F 53.1 °F 90% 30.18 in 10.0 mi NNE 4.6 mph - 0.00 in   Overcast
5:53 AM 55.9 °F 54.0 °F 93% 30.19 in 10.0 mi Calm Calm - 0.00 in   Overcast
6:11 AM 57.2 °F 53.6 °F 88% 30.19 in 10.0 mi Calm Calm - 0.00 in Rain Light Rain
6:22 AM 57.2 °F 53.6 °F 88% 30.19 in 10.0 mi NNE 4.6 mph - 0.00 in   Overcast
6:53 AM 57.9 °F 55.0 °F 90% 30.19 in 10.0 mi NNE 4.6 mph - 0.00 in   Overcast
7:53 AM 61.0 °F 55.0 °F 81% 30.18 in 10.0 mi North 6.9 mph - N/A   Overcast
8:53 AM 62.1 °F 54.0 °F 75% 30.18 in 10.0 mi NNE 5.8 mph - N/A   Partly Cloudy
9:27 AM 60.8 °F 55.4 °F 82% 30.18 in 10.0 mi SW 8.1 mph - N/A   Overcast
9:53 AM 62.1 °F 55.0 °F 78% 30.17 in 10.0 mi SW 6.9 mph - N/A   Overcast
10:53 AM 59.0 °F 55.9 °F 90% 30.17 in 5.0 mi SSW 3.5 mph - 0.04 in Rain Light Rain
11:53 AM 61.0 °F 57.0 °F 87% 30.17 in 10.0 mi WSW 4.6 mph - 0.03 in Rain Light Rain
12:53 PM 63.0 °F 57.0 °F 81% 30.14 in 10.0 mi Variable 3.5 mph - 0.00 in   Mostly Cloudy
1:53 PM 62.1 °F 57.9 °F 86% 30.13 in 5.0 mi WSW 3.5 mph - 0.02 in Rain Rain
2:53 PM 66.0 °F 57.0 °F 73% 30.12 in 10.0 mi Variable 3.5 mph - 0.03 in   Mostly Cloudy
3:53 PM 63.0 °F 57.0 °F 81% 30.09 in 10.0 mi North 3.5 mph - 0.00 in Rain Light Rain
4:53 PM 66.0 °F 55.0 °F 68% 30.08 in 10.0 mi Calm Calm - 0.00 in   Mostly Cloudy
5:53 PM 64.0 °F 53.1 °F 67% 30.05 in 10.0 mi Calm Calm - 0.01 in   Clear
6:53 PM 63.0 °F 55.0 °F 75% 30.04 in 10.0 mi SW 4.6 mph - N/A   Clear
7:53 PM 60.1 °F 53.1 °F 78% 30.04 in 10.0 mi Calm Calm - N/A   Clear
8:53 PM 57.9 °F 53.1 °F 84% 30.03 in 10.0 mi Calm Calm - N/A   Clear
9:53 PM 57.0 °F 53.1 °F 87% 30.02 in 10.0 mi Calm Calm - N/A   Mostly Cloudy
10:53 PM 57.0 °F 54.0 °F 89% 30.02 in 10.0 mi SW 4.6 mph - N/A   Overcast
11:53 PM 57.0 °F 54.0 °F 89% 30.02 in 10.0 mi Calm Calm - N/A   Overcast